Location: Limoges
(45.8500°N, 1.2500°E)
Time: 02:01:21
(UTC+02:00)

ISS - Pass Details

Date: 03 October 2021
Orbit: 417 x 423 km, 51.6° (Epoch: 21 October)

Event Time Altitude Azimuth Distance (km) Brightness Sun altitude
Rises 20:17:04 0° 298° (WNW) 2,365 1.4 -8.8°
Reaches altitude 10° 20:19:11 10° 299° (WNW) 1,500 0.2 -9.2°
Maximum altitude 20:22:33 79° 27° (NNE) 430 -3.8 -9.8°
Enters shadow 20:25:20 14° 114° (ESE) 1,268 -1.9 -10.3°
